When you browse on this site, cookies collect data to enhance your experience and personalize the content and advertising you see.
Visit our Privacy Policy to learn more. By continuing to use the site, you agree to this use of cookies and data.
  • en France
  • Liste des pays
  • À 7 jours
  • Température de l'eau
  • Carte météo
  • Widgets météo
  • user-avatar
    Se connecter

    Météo par heure à Potsdam

    Ce jour, 9 Avril, Jeudi

    Heure Température Précipitation Vent Pression Humidité
    00:00 +13°C° 0 mm 2 m/s 762 mmHg 55%
    01:00 +12°C° 0 mm 2 m/s 762 mmHg 53%
    02:00 +12°C° 0 mm 2 m/s 762 mmHg 59%
    03:00 +10°C° 0 mm 2 m/s 762 mmHg 65%
    04:00 +10°C° 0 mm 2 m/s 762 mmHg 71%
    05:00 +10°C° 0 mm 2 m/s 762 mmHg 70%
    06:00 +10°C° 0 mm 2 m/s 762 mmHg 68%
    07:00 +10°C° 0 mm 3 m/s 763 mmHg 64%
    08:00 +12°C° 0 mm 3 m/s 763 mmHg 59%
    09:00 +13°C° 0 mm 3 m/s 763 mmHg 55%
    10:00 +14°C° 0 mm 3 m/s 763 mmHg 50%
    11:00 +15°C° 0 mm 4 m/s 763 mmHg 49%
    12:00 +17°C° 0 mm 4 m/s 763 mmHg 48%
    13:00 +18°C° 0 mm 4 m/s 763 mmHg 47%
    14:00 +18°C° 0 mm 4 m/s 763 mmHg 49%
    15:00 +17°C° 0 mm 4 m/s 763 mmHg 51%
    16:00 +17°C° 0 mm 4 m/s 763 mmHg 53%
    17:00 +15°C° 0 mm 4 m/s 763 mmHg 59%
    18:00 +14°C° 0 mm 3 m/s 764 mmHg 65%
    19:00 +13°C° 0 mm 2 m/s 764 mmHg 71%
    20:00 +12°C° 0 mm 2 m/s 764 mmHg 72%
    21:00 +10°C° 0 mm 2 m/s 765 mmHg 73%
    22:00 +8°C° 0 mm 2 m/s 765 mmHg 74%
    23:00 +8°C° 0 mm 2 m/s 766 mmHg 71%

    Demain, 10 Avril, Vendredi

    Heure Température Précipitation Vent Pression Humidité
    00:00 +8°C° 0 mm 1 m/s 766 mmHg 68%
    01:00 +8°C° 0 mm 1 m/s 766 mmHg 66%
    02:00 +7°C° 0 mm 1 m/s 766 mmHg 67%
    03:00 +7°C° 0 mm 1 m/s 766 mmHg 68%
    04:00 +6°C° 0 mm 1 m/s 766 mmHg 69%
    05:00 +6°C° 0 mm 1 m/s 766 mmHg 69%
    06:00 +7°C° 0 mm 1 m/s 766 mmHg 68%
    07:00 +7°C° 0 mm 1 m/s 766 mmHg 68%
    08:00 +9°C° 0 mm 1 m/s 766 mmHg 63%
    09:00 +9°C° 0 mm 2 m/s 766 mmHg 58%
    10:00 +12°C° 0 mm 2 m/s 766 mmHg 52%
    11:00 +12°C° 0 mm 2 m/s 766 mmHg 48%
    12:00 +13°C° 0 mm 2 m/s 766 mmHg 44%
    13:00 +14°C° 0 mm 2 m/s 766 mmHg 40%
    14:00 +13°C° 0 mm 3 m/s 765 mmHg 41%
    15:00 +13°C° 0 mm 3 m/s 765 mmHg 41%
    16:00 +13°C° 0 mm 3 m/s 764 mmHg 41%
    17:00 +11°C° 0 mm 3 m/s 765 mmHg 47%
    18:00 +10°C° 0 mm 2 m/s 765 mmHg 53%
    19:00 +8°C° 0 mm 2 m/s 765 mmHg 58%
    20:00 +7°C° 0 mm 2 m/s 765 mmHg 62%
    21:00 +6°C° 0 mm 2 m/s 765 mmHg 66%
    22:00 +7°C° 0 mm 1 m/s 765 mmHg 70%
    23:00 +6°C° 0 mm 1 m/s 765 mmHg 72%

    Après-demain, 11 Avril, Samedi

    Heure Température Précipitation Vent Pression Humidité
    00:00 +6°C° 0 mm 1 m/s 766 mmHg 74%
    01:00 +4°C° 0 mm 0 m/s 766 mmHg 77%
    02:00 +4°C° 0 mm 0 m/s 766 mmHg 78%
    03:00 +4°C° 0 mm 0 m/s 766 mmHg 80%
    04:00 +3°C° 0 mm 0 m/s 766 mmHg 81%
    05:00 +4°C° 0 mm 0 m/s 766 mmHg 79%
    06:00 +5°C° 0 mm 0 m/s 766 mmHg 76%
    07:00 +6°C° 0 mm 0 m/s 766 mmHg 73%
    08:00 +7°C° 0 mm 0 m/s 766 mmHg 67%
    09:00 +9°C° 0 mm 0 m/s 766 mmHg 60%
    10:00 +11°C° 0 mm 0 m/s 766 mmHg 54%
    11:00 +12°C° 0 mm 0 m/s 766 mmHg 50%
    12:00 +14°C° 0 mm 0 m/s 766 mmHg 45%
    13:00 +15°C° 0 mm 0 m/s 766 mmHg 41%
    14:00 +15°C° 0 mm 0 m/s 765 mmHg 41%
    15:00 +15°C° 0 mm 0 m/s 765 mmHg 41%
    16:00 +15°C° 0 mm 0 m/s 765 mmHg 41%
    17:00 +13°C° 0 mm 0 m/s 764 mmHg 46%
    18:00 +12°C° 0 mm 0 m/s 764 mmHg 52%
    19:00 +11°C° 0 mm 1 m/s 764 mmHg 57%
    20:00 +11°C° 0 mm 1 m/s 764 mmHg 59%
    21:00 +10°C° 0 mm 1 m/s 764 mmHg 62%
    22:00 +9°C° 0 mm 1 m/s 764 mmHg 64%
    23:00 +9°C° 0 mm 1 m/s 764 mmHg 66%

    12 Avril, Dimanche

    Heure Température Précipitation Vent Pression Humidité
    00:00 +7°C° 0 mm 2 m/s 763 mmHg 67%
    01:00 +7°C° 0 mm 2 m/s 763 mmHg 68%
    02:00 +7°C° 0 mm 2 m/s 763 mmHg 68%
    03:00 +6°C° 0 mm 2 m/s 762 mmHg 68%
    04:00 +6°C° 0 mm 2 m/s 762 mmHg 68%
    05:00 +7°C° 0 mm 2 m/s 761 mmHg 67%
    06:00 +7°C° 0 mm 2 m/s 761 mmHg 65%
    07:00 +8°C° 0 mm 2 m/s 761 mmHg 64%
    08:00 +10°C° 0 mm 2 m/s 760 mmHg 58%
    09:00 +13°C° 0 mm 2 m/s 760 mmHg 52%
    10:00 +16°C° 0 mm 2 m/s 759 mmHg 47%
    11:00 +17°C° 0 mm 3 m/s 759 mmHg 43%
    12:00 +19°C° 0 mm 3 m/s 758 mmHg 40%
    13:00 +20°C° 0 mm 3 m/s 758 mmHg 37%
    14:00 +20°C° 0 mm 3 m/s 757 mmHg 38%
    15:00 +20°C° 0 mm 3 m/s 756 mmHg 39%
    16:00 +21°C° 0 mm 2 m/s 756 mmHg 39%
    17:00 +19°C° 0 mm 2 m/s 755 mmHg 46%
    18:00 +17°C° 0 mm 2 m/s 755 mmHg 53%
    19:00 +15°C° 0 mm 1 m/s 754 mmHg 60%
    20:00 +14°C° 0 mm 1 m/s 754 mmHg 63%
    21:00 +14°C° 0 mm 1 m/s 754 mmHg 67%
    22:00 +13°C° 0 mm 2 m/s 754 mmHg 70%
    23:00 +12°C° 0 mm 2 m/s 754 mmHg 71%

    13 Avril, Lundi

    Heure Température Précipitation Vent Pression Humidité
    00:00 +12°C° 0 mm 2 m/s 753 mmHg 73%
    01:00 +10°C° 0 mm 2 m/s 753 mmHg 75%
    02:00 +10°C° 0 mm 2 m/s 753 mmHg 76%
    03:00 +9°C° 0 mm 2 m/s 753 mmHg 77%
    04:00 +9°C° 0 mm 2 m/s 752 mmHg 78%
    05:00 +10°C° 0 mm 2 m/s 752 mmHg 76%
    06:00 +10°C° 0 mm 2 m/s 752 mmHg 74%
    07:00 +12°C° 0 mm 2 m/s 752 mmHg 72%
    08:00 +13°C° 0 mm 2 m/s 752 mmHg 69%
    09:00 +13°C° 0 mm 3 m/s 752 mmHg 66%
    10:00 +15°C° 0 mm 4 m/s 752 mmHg 62%
    11:00 +14°C° 0.5 mm 4 m/s 752 mmHg 67%
    12:00 +14°C° 0.5 mm 4 m/s 752 mmHg 72%
    13:00 +13°C° 0.5 mm 3 m/s 752 mmHg 77%
    14:00 +13°C° 0.1 mm 4 m/s 752 mmHg 73%
    15:00 +12°C° 0.1 mm 5 m/s 752 mmHg 68%
    16:00 +12°C° 0.1 mm 5 m/s 753 mmHg 64%
    17:00 +9°C° 0 mm 6 m/s 753 mmHg 67%
    18:00 +8°C° 0 mm 6 m/s 754 mmHg 70%
    19:00 +6°C° 0 mm 7 m/s 755 mmHg 73%
    20:00 +5°C° 0 mm 6 m/s 756 mmHg 72%
    21:00 +5°C° 0 mm 5 m/s 757 mmHg 70%
    22:00 +3°C° 0 mm 5 m/s 758 mmHg 69%
    23:00 +3°C° 0 mm 4 m/s 759 mmHg 74%

    14 Avril, Mardi

    Heure Température Précipitation Vent Pression Humidité
    00:00 +2°C° 0 mm 3 m/s 760 mmHg 78%
    01:00 +2°C° 0 mm 2 m/s 760 mmHg 83%
    02:00 +2°C° 0 mm 2 m/s 761 mmHg 83%
    03:00 +1°C° 0 mm 3 m/s 761 mmHg 83%
    04:00 0°C° 0 mm 3 m/s 762 mmHg 82%
    05:00 +1°C° 0 mm 3 m/s 762 mmHg 71%
    06:00 +1°C° 0 mm 3 m/s 763 mmHg 60%
    07:00 +1°C° 0 mm 4 m/s 763 mmHg 49%
    08:00 +3°C° 0 mm 4 m/s 763 mmHg 45%
    09:00 +4°C° 0 mm 4 m/s 763 mmHg 41%
    10:00 +6°C° 0 mm 4 m/s 764 mmHg 37%
    11:00 +7°C° 0 mm 3 m/s 764 mmHg 35%
    12:00 +8°C° 0 mm 3 m/s 764 mmHg 33%
    13:00 +9°C° 0 mm 3 m/s 764 mmHg 31%
    14:00 +9°C° 0 mm 3 m/s 764 mmHg 31%
    15:00 +9°C° 0 mm 3 m/s 763 mmHg 31%
    16:00 +10°C° 0 mm 2 m/s 763 mmHg 31%
    17:00 +8°C° 0 mm 2 m/s 763 mmHg 36%
    18:00 +7°C° 0 mm 2 m/s 763 mmHg 41%
    19:00 +6°C° 0 mm 1 m/s 763 mmHg 46%
    20:00 +6°C° 0 mm 1 m/s 763 mmHg 49%
    21:00 +4°C° 0 mm 2 m/s 763 mmHg 52%
    22:00 +3°C° 0 mm 2 m/s 763 mmHg 55%
    23:00 +2°C° 0 mm 2 m/s 763 mmHg 55%
    Voir plus